Vorticity
8 7 9 9 8 7 7 7 7 9 9 8 8 7 7 7 9 11 11 11 10 7 6 5 5 5 5 5 6 7 7 7 7 6 7 8 9 10 10 11 11 10 10 8 6 7 7 7 5 1 -0 0 4 9 7 6 7 9 9 7 9 9 10 14 12 6 3 7 8 7 10 11 12 14 13 13 13 12 11 10 9 10 11 11 11 12 11 10
7 7 8 9 9 8 7 7 7 8 8 7 7 7 7 6 6 8 8 10 11 10 9 7 7 6 6 6 7 7 8 8 7 7 8 8 9 10 10 11 11 10 8 8 7 6 5 3 2 -1 -1 5 8 9 7 5 8 10 7 6 10 10 7 8 8 7 9 10 10 13 15 15 16 17 17 15 15 15 13 12 12 13 14 16 17 17 15 13
7 7 7 8 9 8 7 7 8 8 8 7 7 7 7 6 6 6 7 7 8 8 9 9 8 7 7 7 6 7 7 7 7 7 7 7 10 11 11 11 9 8 7 7 6 4 3 1 -0 2 9 14 8 4 7 6 9 9 5 11 13 8 7 9 11 11 11 11 12 14 14 14 13 14 15 13 13 13 12 13 14 15 16 18 19 19 18 15
8 6 6 7 8 8 8 7 8 8 8 8 8 7 6 6 6 6 7 7 7 7 7 8 8 8 7 7 6 6 6 6 7 7 7 8 11 12 12 11 7 6 7 6 7 5 3 2 4 9 13 12 3 3 9 6 8 12 11 14 10 7 10 10 10 10 11 13 13 12 12 11 10 11 11 11 11 11 12 13 14 16 16 15 15 16 15 12
8 6 5 6 8 8 7 7 8 8 8 8 7 6 5 6 7 8 10 10 10 10 9 9 8 8 8 7 7 7 7 6 7 8 8 9 11 13 13 11 9 7 7 7 6 3 3 6 10 13 10 8 7 9 12 7 7 12 11 10 9 8 8 6 7 10 13 14 10 9 11 12 11 11 10 10 11 10 10 10 13 16 15 15 15 15 14 13
10 7 5 5 6 7 7 7 7 7 8 7 6 6 6 8 10 12 13 11 11 11 11 10 10 10 9 9 9 8 9 8 9 8 8 12 13 16 16 11 8 6 5 5 3 3 5 8 9 10 8 8 12 12 12 9 6 9 9 7 7 5 5 9 10 12 14 14 11 10 12 12 10 10 9 10 11 10 9 9 13 14 14 15 10 8 12 13
11 8 6 4 5 7 8 8 7 7 7 6 6 5 7 12 13 12 10 10 11 12 12 12 12 12 12 11 11 12 11 9 10 11 12 14 15 17 14 7 4 3 4 3 2 4 6 7 8 5 6 9 7 6 10 11 6 6 6 5 5 4 10 17 16 14 13 12 13 12 13 12 9 11 11 11 10 8 8 10 11 11 13 12 4 2 10 15
11 10 8 5 5 6 7 8 8 7 7 6 6 7 11 14 11 8 8 10 10 10 10 11 12 13 13 12 14 13 11 11 11 13 15 15 14 12 7 3 2 2 2 2 2 6 8 9 7 3 9 16 8 0 6 8 5 5 6 5 4 6 14 17 15 15 11 9 11 11 14 14 12 13 12 10 9 8 10 10 9 9 11 10 5 3 9 16
11 11 9 7 5 6 7 8 7 8 7 6 6 10 14 10 7 8 8 8 7 7 8 9 11 11 11 13 14 12 11 12 11 13 13 12 10 7 4 1 2 3 2 3 5 8 9 7 8 9 11 15 10 3 5 5 3 5 5 4 3 6 14 14 12 12 10 11 11 9 12 14 14 15 12 10 9 9 11 12 12 9 7 7 8 10 12 15
10 10 9 7 6 7 8 7 7 8 6 7 11 13 11 6 7 8 7 8 8 10 10 11 13 13 12 12 12 11 11 11 10 11 9 9 10 5 3 2 2 2 2 6 10 11 12 13 17 18 12 7 7 8 7 5 2 1 3 5 3 4 10 10 10 13 13 13 11 10 12 13 15 16 12 10 9 9 9 11 13 10 9 9 10 13 17 18
10 10 8 7 7 8 8 8 8 7 7 11 14 10 6 6 7 8 9 12 12 12 11 13 15 16 14 12 12 11 11 12 13 12 10 10 10 5 2 2 1 1 6 10 9 12 15 18 17 11 9 6 6 10 8 4 0 -2 5 9 4 3 8 8 9 12 14 15 13 14 17 16 15 14 13 13 12 13 13 12 12 12 12 11 9 11 16 19
10 9 8 7 8 8 8 9 7 8 12 14 10 5 5 7 9 11 14 13 11 10 11 12 13 14 13 13 12 11 11 13 13 12 9 8 7 5 2 0 1 7 11 6 5 15 14 12 9 4 9 8 5 9 5 3 0 -2 7 10 5 4 7 8 8 6 7 11 13 13 15 14 14 13 12 13 13 13 15 14 13 13 12 10 9 6 7 14
11 9 8 8 8 9 9 8 9 13 14 10 5 5 7 10 13 14 13 10 10 11 11 13 13 14 13 12 13 11 11 10 10 11 5 5 6 4 2 -0 5 12 9 1 7 20 16 10 7 4 9 6 6 12 7 4 2 1 7 9 6 4 7 10 9 4 1 4 9 12 11 10 11 10 10 11 10 11 12 14 14 13 13 11 10 7 5 12
11 10 9 9 9 9 9 11 14 14 9 6 7 10 12 15 15 12 10 10 11 14 16 17 15 14 12 11 13 11 10 8 10 11 7 9 6 2 5 5 8 7 -0 3 11 17 17 12 5 3 8 7 10 15 10 7 7 7 10 9 8 6 7 10 8 5 3 3 7 12 14 13 10 8 9 9 7 8 8 10 12 13 13 12 11 10 8 10
11 10 10 10 9 9 13 15 12 8 8 11 14 16 17 16 12 9 10 11 11 13 17 20 18 16 14 12 13 11 9 11 12 13 12 10 3 3 9 7 4 -2 -1 12 15 15 12 2 2 8 9 9 11 11 7 8 11 12 10 8 7 8 9 9 8 6 3 4 7 11 14 14 12 10 11 10 8 6 6 7 9 11 13 13 13 12 10 8
10 10 10 10 10 13 15 10 7 10 14 16 17 18 16 12 9 10 12 11 13 16 18 23 21 16 12 11 15 12 8 12 13 13 13 7 2 7 8 3 2 2 10 16 15 19 11 -2 7 14 8 6 5 7 10 10 13 14 11 10 9 10 12 7 5 5 2 4 6 7 10 10 11 11 11 11 10 8 7 7 7 10 12 12 13 13 13 11
9 9 10 9 12 15 11 8 13 17 16 14 13 14 13 11 13 14 15 15 16 21 23 27 26 20 14 13 15 11 7 12 12 9 8 4 3 6 6 5 10 13 14 12 12 20 16 8 12 10 5 5 1 5 14 13 13 14 12 12 11 12 13 9 6 4 2 5 4 3 6 8 7 8 8 8 10 11 9 8 7 9 10 11 12 13 14 13
9 9 8 10 14 12 9 13 18 15 11 8 7 9 12 15 17 14 12 13 13 18 26 29 26 18 14 14 13 9 9 10 8 6 5 3 4 7 10 11 14 14 10 9 11 13 14 13 11 7 4 4 2 3 9 12 12 12 10 8 8 8 12 12 7 3 1 4 4 3 8 8 6 6 6 6 7 9 9 8 8 8 9 9 10 12 13 14
9 8 7 12 14 9 11 15 14 11 8 6 7 8 12 15 12 6 5 9 11 15 21 27 23 14 12 13 13 13 15 11 5 4 5 6 6 10 12 9 8 8 6 8 8 4 8 10 8 10 7 3 4 1 1 8 8 9 9 7 4 3 8 10 6 2 0 3 4 6 12 10 7 6 6 6 5 6 7 7 6 7 8 8 9 9 10 12
10 8 7 12 12 7 12 13 9 9 8 9 11 8 10 12 7 6 9 10 13 15 17 22 21 15 13 13 14 19 20 13 7 7 13 17 13 10 9 7 5 4 4 7 7 3 2 3 2 6 7 5 6 0 -1 4 3 4 8 12 9 4 7 8 6 5 2 4 9 11 15 11 7 8 7 7 6 5 7 6 5 6 7 8 8 8 8 9
10 8 7 12 10 6 11 11 6 6 7 10 11 7 8 7 6 13 17 12 12 16 17 18 15 10 12 14 15 20 21 19 20 21 24 21 12 7 6 5 3 4 6 7 8 5 0 0 1 1 5 6 6 0 -3 -0 2 4 7 12 13 9 8 7 8 10 7 7 10 11 13 10 8 9 10 10 9 9 11 10 8 6 6 7 7 7 8 9
10 8 7 12 9 7 11 10 6 6 8 9 9 10 7 1 4 12 15 13 14 16 16 15 12 11 15 21 25 27 24 19 16 15 13 7 5 6 6 6 6 8 7 2 1 4 3 2 1 2 5 6 5 1 -2 -1 2 6 9 11 14 13 10 9 10 9 8 8 7 8 9 8 9 9 9 9 9 10 12 12 11 9 7 6 6 7 8 9
10 7 7 11 9 7 10 10 7 8 10 11 11 12 8 3 5 7 9 13 15 15 16 15 14 16 21 27 28 21 12 4 1 3 3 3 6 6 6 9 10 6 1 -0 4 5 4 2 -1 2 7 6 5 1 -0 3 4 8 10 11 15 15 10 10 11 8 6 6 6 6 5 6 9 8 6 8 8 8 8 9 10 10 9 8 8 7 6 7
9 7 7 10 9 6 9 11 8 8 12 13 11 10 8 5 6 8 8 13 17 16 16 16 15 19 22 21 15 5 -1 -1 -0 2 3 4 5 4 7 12 11 7 5 7 10 6 3 3 1 4 6 3 3 4 1 2 7 8 8 9 12 12 11 9 7 6 4 4 7 9 4 3 7 7 6 7 7 7 7 7 8 8 8 8 9 10 9 8
8 7 6 10 10 6 9 12 7 9 14 14 9 8 8 6 9 12 9 12 21 17 14 16 15 15 14 12 7 1 -1 1 2 3 3 4 4 6 11 11 7 7 8 7 5 4 5 4 3 6 5 0 1 7 5 1 7 6 2 9 10 6 10 10 5 5 3 3 6 6 3 3 8 8 7 10 11 9 8 7 6 6 7 7 8 10 11 10
8 7 6 10 10 5 10 12 6 9 15 14 10 7 8 9 12 14 10 12 19 15 14 16 14 11 8 8 4 0 1 1 3 4 2 5 4 4 7 4 -0 0 4 6 3 3 0 -1 6 7 2 1 -1 4 8 4 6 4 0 10 12 4 5 7 6 5 6 5 -0 -2 0 5 9 6 6 12 14 11 10 8 6 6 7 9 9 7 7 7
8 7 6 11 9 6 12 11 5 9 13 14 13 8 10 13 15 14 13 15 15 15 20 18 13 8 4 3 -1 -0 4 1 1 1 1 7 4 2 3 0 0 1 1 4 3 3 -1 -2 8 5 -1 3 2 6 14 7 2 4 5 10 11 5 0 2 4 4 8 7 -0 -1 2 4 6 4 5 11 13 10 10 10 9 9 7 9 10 8 6 6
8 7 5 11 10 6 12 11 5 8 10 13 15 13 11 12 15 13 12 15 13 18 25 17 10 8 4 3 -1 2 5 -2 -0 3 4 6 2 4 5 2 8 7 1 1 3 4 0 -1 6 3 0 6 7 12 17 9 3 5 8 8 8 5 1 3 6 4 7 10 7 6 6 5 5 1 1 7 10 9 9 9 10 11 10 8 9 9 8 7
8 7 6 10 10 8 12 10 4 7 9 11 17 16 10 10 10 5 6 13 13 16 19 11 8 9 6 2 1 4 3 -2 0 2 2 3 3 8 5 1 9 5 -1 5 8 3 -2 3 10 5 2 4 6 10 10 6 3 3 6 7 6 4 3 7 9 8 8 9 8 6 3 5 8 3 -2 2 8 10 9 10 9 9 10 9 7 8 8 8
7 6 6 9 10 9 12 9 4 8 9 11 19 15 9 10 5 1 8 15 14 12 11 8 9 10 6 0 0 2 -1 -2 0 -0 0 3 6 9 2 -2 -0 -3 -1 6 8 4 -3 4 12 4 2 5 3 3 3 2 2 1 3 7 8 6 6 9 7 4 4 6 8 7 -0 -1 5 4 -3 -2 6 10 10 10 8 7 7 7 6 5 6 7
8 6 6 9 11 9 11 9 4 8 8 11 18 13 10 12 5 6 13 12 11 8 5 7 7 7 7 3 1 1 -1 1 1 1 3 1 4 6 4 2 -4 -3 8 5 3 6 0 5 11 4 5 8 3 4 5 3 2 2 4 7 8 4 7 10 4 -1 2 5 9 11 11 8 4 3 2 0 2 5 8 10 9 7 6 6 4 4 6 8
8 6 5 9 11 7 9 9 4 7 8 11 17 12 12 14 7 8 10 9 12 4 0 6 6 8 10 6 4 2 2 3 1 2 3 -1 2 4 7 8 1 3 11 3 2 9 5 9 9 1 5 9 4 3 4 3 4 3 3 6 5 2 8 10 3 3 8 10 8 9 18 18 4 -2 3 3 1 3 6 7 8 8 8 8 7 6 8 9
9 7 5 9 11 7 9 10 5 7 8 10 15 13 12 13 8 6 8 13 12 2 4 9 5 7 8 5 5 3 -1 -1 -1 0 1 0 3 3 6 10 7 10 10 -1 3 15 14 12 5 -1 6 10 4 -1 -2 -2 0 1 2 4 5 4 7 6 4 6 9 11 9 5 12 14 2 -5 -0 3 2 2 3 5 9 10 8 8 8 7 7 6
10 7 5 8 10 8 10 10 6 6 8 11 13 13 15 11 6 6 9 14 14 15 17 10 4 9 8 6 7 2 -3 -1 1 -1 -2 2 4 2 4 6 8 11 7 1 7 21 21 10 2 2 6 7 4 1 0 -2 -3 2 6 6 7 6 5 4 5 5 6 9 8 6 8 9 5 3 2 2 3 2 3 7 10 10 7 8 8 7 6 4
11 9 6 6 9 9 9 9 8 5 7 11 11 16 19 9 4 10 12 10 16 26 20 4 8 15 9 9 11 6 2 4 6 1 -3 0 1 1 3 4 9 9 5 6 11 18 19 6 0 4 5 6 3 -1 3 3 -0 3 7 6 6 6 5 5 6 6 8 9 6 7 9 7 10 8 -1 -5 -0 4 6 7 10 11 7 7 9 7 7 5
12 10 6 5 8 9 8 10 9 4 7 11 9 18 20 6 6 14 14 9 11 22 17 2 8 12 4 8 11 8 7 4 5 4 2 3 4 7 3 1 13 12 5 10 9 12 18 7 1 6 5 6 3 -2 1 4 4 5 5 4 4 6 6 3 5 7 9 10 10 11 12 9 11 10 -1 -7 -1 8 9 4 8 12 8 6 8 6 6 6
14 11 6 5 7 9 9 11 10 4 7 10 8 17 15 4 9 10 11 16 11 14 17 4 1 6 5 8 9 7 7 4 3 4 5 6 7 10 3 2 16 12 5 10 5 8 18 8 3 10 7 2 2 1 0 4 9 8 3 3 4 5 4 -1 1 4 6 11 13 12 12 10 9 10 7 3 6 10 10 6 6 11 9 5 6 6 5 6
14 12 7 4 6 8 8 11 11 5 7 9 8 15 12 6 9 2 8 25 15 8 15 6 -0 1 -0 2 5 5 5 4 4 3 3 6 10 15 12 10 15 11 9 13 5 4 13 8 6 12 9 4 1 -1 -1 5 10 6 1 4 4 2 3 2 4 6 6 10 10 8 10 9 8 12 7 4 11 11 5 6 8 9 7 4 5 6 4 6
14 14 9 4 5 8 7 10 12 5 6 10 9 12 12 9 8 2 12 27 15 5 13 9 4 3 -2 -2 1 2 1 1 3 4 5 9 14 20 18 11 8 8 12 16 9 4 7 8 7 9 10 7 1 -2 1 5 6 2 1 3 2 2 6 7 9 11 9 8 9 8 8 6 8 17 8 -6 4 10 2 6 9 6 5 4 5 5 4 6
14 14 10 5 4 7 7 8 11 7 6 8 9 9 11 11 9 4 14 25 13 6 11 9 7 7 2 1 2 2 1 -1 -1 4 8 10 11 13 12 7 4 5 10 13 12 8 7 8 8 9 12 10 6 6 11 9 5 3 4 5 6 6 6 7 8 12 11 8 9 8 8 6 8 20 17 -3 -2 8 6 6 7 5 5 5 5 5 5 6
13 14 10 8 5 5 7 7 9 10 6 5 8 9 9 13 11 4 10 19 12 5 7 7 6 6 2 3 5 4 4 1 -1 4 8 7 4 4 7 9 8 7 8 8 10 10 9 9 9 11 13 13 12 12 13 10 6 6 8 10 13 11 8 8 8 9 8 7 9 8 6 9 8 11 13 6 5 10 8 5 5 5 5 4 4 5 5 6
12 11 10 11 7 4 7 8 8 10 8 5 8 10 9 13 13 7 7 12 8 4 7 6 4 4 4 3 4 4 3 2 1 5 8 4 1 2 6 11 10 8 9 9 8 9 9 8 10 11 11 12 13 9 7 6 5 5 5 5 8 9 8 8 7 7 7 7 9 8 7 9 10 7 6 8 10 8 6 6 4 3 4 3 3 4 5 7
9 9 10 13 10 4 5 8 8 7 8 8 8 10 11 13 15 13 9 8 8 8 9 7 4 5 6 5 5 4 3 2 2 6 7 3 2 4 7 10 9 7 10 9 7 10 9 9 11 12 11 11 12 10 7 5 3 4 4 2 3 6 7 7 5 5 8 8 7 8 8 7 9 9 8 9 9 7 7 7 4 3 3 2 2 3 5 7
7 9 11 13 12 7 4 7 10 8 8 9 8 10 12 12 15 16 11 7 10 11 9 6 2 3 7 6 6 8 5 3 3 6 7 2 3 6 7 7 7 6 7 7 8 13 13 11 12 13 13 12 12 13 9 6 5 5 6 5 2 4 6 7 8 8 9 9 8 8 8 6 6 7 7 8 8 8 8 5 4 4 2 1 2 4 5 7
4 7 11 12 12 9 5 6 9 11 10 9 8 8 9 10 13 16 14 9 10 11 11 8 2 4 9 6 5 8 8 7 5 6 6 4 3 7 8 7 5 6 7 6 7 11 13 11 9 10 12 10 11 16 15 12 13 12 11 10 6 5 6 6 7 9 9 11 12 10 8 7 5 5 7 9 9 8 6 4 3 3 1 1 3 4 5 5
3 5 10 12 12 10 7 5 6 10 11 8 8 8 7 9 12 13 12 12 13 13 12 9 4 7 10 5 3 6 8 11 11 8 8 8 6 7 8 7 5 5 7 5 5 7 9 8 6 5 6 5 7 13 14 11 11 10 10 11 10 8 8 8 9 9 10 11 11 10 8 7 6 5 7 9 9 8 4 2 2 1 1 3 5 6 5 3
2 5 8 11 13 12 9 6 5 8 9 7 8 9 7 9 13 13 10 11 14 14 12 10 7 8 10 5 1 1 3 9 12 9 8 10 10 8 7 7 5 5 7 5 4 6 7 6 6 5 4 4 5 6 7 7 6 7 9 11 10 8 7 7 8 9 10 10 10 10 9 7 7 7 9 9 9 7 3 2 3 2 4 6 7 6 4 3
2 4 6 9 13 14 11 7 5 7 9 8 8 9 8 9 14 15 10 8 11 13 12 10 8 8 8 4 2 1 2 5 8 8 7 10 12 9 8 8 7 6 7 4 3 5 7 7 8 8 8 7 6 5 5 6 5 6 8 9 9 10 10 10 9 9 9 8 9 10 9 9 10 9 9 7 5 4 4 4 4 4 7 9 8 5 4 5
3 4 4 6 10 14 12 8 5 5 8 9 7 7 9 10 11 12 10 8 7 10 13 11 7 7 6 4 3 3 3 3 6 7 7 9 12 9 8 11 11 9 7 6 5 5 7 8 8 10 10 8 6 6 7 8 7 7 8 6 5 7 10 11 10 10 10 9 9 10 10 11 10 7 5 4 4 5 6 7 7 8 10 9 6 5 4 7
4 4 5 4 7 13 14 10 7 5 6 8 7 6 8 10 11 14 21 22 14 10 13 12 7 5 5 4 3 4 5 4 6 8 7 8 11 10 10 13 14 12 9 6 7 7 7 7 8 10 9 7 6 6 8 9 10 10 10 7 5 4 5 6 8 9 10 10 10 10 10 9 6 4 3 4 7 9 9 9 11 11 10 8 6 5 6 11
4 4 6 4 4 10 14 12 9 6 5 7 7 6 6 8 11 17 29 36 27 15 13 11 6 2 2 3 1 2 7 9 8 8 8 10 13 12 12 14 12 11 10 8 8 8 6 5 6 7 6 6 7 8 9 9 9 8 8 8 9 8 6 6 8 9 10 10 9 9 8 7 5 5 6 8 11 12 12 13 13 11 9 7 5 6 9 13
4 4 6 4 3 7 13 13 10 7 5 6 7 7 6 8 12 16 22 28 26 18 12 9 6 1 2 4 2 -0 4 9 10 7 7 12 16 13 11 11 9 6 7 9 9 8 6 5 5 6 5 5 8 9 9 8 7 8 9 10 11 9 7 8 9 10 10 9 8 7 7 7 7 8 12 15 15 14 13 12 10 9 8 5 6 9 12 11
Height
5810 5810 5809 5808 5808 5807 5806 5806 5806 5805 5805 5804 5804 5804 5804 5804 5804 5804 5804 5804 5804 5804 5804 5805 5805 5805 5806 5806 5807 5807 5807 5808 5808 5809 5809 5809 5809 5809 5809 5810 5810 5811 5812 5812 5813 5813 5814 5814 5814 5814 5815 5817 5818 5819 5820 5820 5820 5820 5819 5819 5819 5818 5817 5817 5816 5816 5815 5815 5814 5813 5812 5811 5810 5809 5808 5807 5807 5807 5806 5805 5805 5805 5804 5804 5803 5803 5803 5803
5810 5809 5808 5808 5807 5806 5806 5805 5805 5805 5805 5804 5804 5804 5804 5804 5804 5804 5804 5804 5804 5804 5804 5804 5804 5805 5805 5806 5806 5807 5807 5808 5808 5809 5809 5809 5809 5809 5809 5810 5810 5811 5812 5813 5813 5814 5814 5814 5815 5816 5817 5819 5820 5820 5820 5820 5820 5820 5820 5819 5819 5818 5817 5816 5815 5815 5814 5814 5813 5812 5811 5810 5808 5807 5806 5805 5805 5805 5804 5804 5804 5803 5802 5802 5801 5801 5801 5801
5809 5808 5808 5807 5806 5805 5805 5805 5804 5805 5804 5804 5803 5804 5804 5804 5803 5803 5803 5803 5803 5803 5803 5804 5804 5804 5805 5805 5806 5806 5807 5807 5808 5809 5809 5809 5809 5809 5810 5810 5811 5812 5813 5813 5814 5814 5814 5814 5815 5818 5819 5820 5821 5821 5821 5821 5820 5820 5820 5820 5819 5818 5817 5816 5815 5814 5814 5813 5812 5811 5810 5809 5807 5806 5805 5805 5804 5804 5803 5803 5803 5802 5801 5801 5800 5800 5800 5800
5809 5808 5807 5806 5805 5805 5804 5804 5804 5804 5804 5803 5803 5803 5803 5803 5803 5803 5803 5803 5802 5802 5802 5803 5803 5804 5804 5805 5806 5806 5807 5807 5808 5808 5809 5809 5809 5810 5810 5811 5811 5812 5813 5813 5813 5813 5813 5815 5817 5819 5820 5821 5821 5821 5821 5821 5821 5820 5820 5819 5818 5818 5817 5816 5815 5814 5813 5812 5811 5810 5809 5808 5807 5806 5805 5804 5803 5803 5802 5802 5801 5801 5800 5800 5799 5799 5799 5799
5808 5807 5806 5806 5805 5804 5804 5803 5804 5804 5803 5803 5802 5803 5803 5803 5802 5802 5802 5802 5801 5801 5801 5802 5802 5803 5804 5804 5805 5806 5806 5807 5808 5808 5808 5809 5809 5810 5810 5811 5811 5812 5813 5812 5812 5813 5814 5816 5818 5820 5821 5821 5821 5821 5821 5821 5821 5820 5819 5819 5818 5817 5816 5815 5814 5813 5813 5812 5810 5809 5808 5807 5806 5805 5804 5803 5803 5802 5802 5801 5801 5800 5800 5800 5799 5799 5798 5798
5807 5806 5806 5805 5805 5804 5803 5803 5803 5803 5802 5802 5802 5802 5802 5802 5801 5801 5801 5801 5800 5800 5800 5801 5801 5802 5803 5803 5804 5805 5806 5807 5807 5808 5808 5809 5809 5810 5811 5811 5812 5812 5812 5812 5813 5814 5816 5818 5819 5821 5822 5822 5822 5821 5821 5821 5821 5820 5819 5819 5818 5817 5816 5815 5814 5814 5812 5811 5810 5808 5807 5807 5806 5805 5804 5803 5803 5802 5802 5801 5800 5800 5800 5800 5799 5799 5798 5798
5807 5806 5805 5805 5804 5803 5803 5803 5803 5802 5802 5801 5801 5801 5801 5801 5800 5800 5800 5800 5800 5799 5799 5800 5800 5801 5801 5802 5803 5804 5805 5806 5807 5807 5808 5809 5810 5810 5811 5811 5811 5811 5812 5813 5814 5816 5818 5819 5820 5821 5822 5822 5822 5821 5821 5821 5821 5820 5819 5819 5818 5817 5817 5816 5815 5813 5812 5810 5809 5808 5808 5807 5806 5805 5804 5803 5802 5802 5802 5801 5800 5800 5800 5800 5799 5798 5798 5797
5806 5806 5805 5804 5803 5803 5802 5802 5802 5802 5801 5801 5801 5801 5800 5800 5800 5800 5799 5799 5799 5799 5799 5799 5799 5800 5801 5801 5802 5803 5804 5805 5806 5807 5808 5809 5810 5810 5811 5811 5811 5812 5813 5815 5816 5818 5820 5820 5821 5822 5823 5823 5822 5821 5821 5821 5821 5820 5820 5819 5819 5818 5817 5816 5814 5813 5811 5810 5809 5809 5808 5807 5806 5805 5804 5803 5802 5802 5802 5801 5801 5800 5800 5799 5799 5798 5798 5797
5806 5805 5805 5804 5803 5802 5802 5802 5802 5801 5801 5800 5800 5800 5799 5799 5799 5799 5799 5798 5798 5798 5798 5798 5799 5799 5800 5801 5801 5802 5803 5804 5805 5806 5807 5809 5810 5810 5811 5811 5812 5813 5815 5816 5818 5820 5820 5821 5822 5822 5823 5822 5822 5822 5822 5821 5821 5821 5820 5820 5819 5818 5817 5816 5814 5813 5812 5811 5810 5809 5808 5807 5807 5805 5804 5803 5803 5803 5803 5802 5802 5801 5800 5800 5799 5799 5798 5798
5805 5805 5804 5803 5803 5802 5802 5801 5801 5801 5800 5799 5799 5799 5798 5798 5798 5798 5797 5797 5797 5797 5797 5797 5798 5799 5799 5800 5801 5801 5803 5803 5804 5806 5807 5808 5809 5811 5811 5812 5813 5815 5816 5817 5819 5820 5821 5821 5822 5823 5823 5822 5822 5822 5822 5822 5821 5822 5821 5821 5820 5819 5818 5816 5815 5814 5813 5812 5810 5809 5809 5809 5808 5806 5805 5804 5804 5804 5804 5803 5802 5802 5801 5800 5800 5799 5798 5798
5805 5804 5804 5803 5802 5802 5801 5801 5801 5800 5799 5799 5798 5798 5798 5797 5797 5797 5796 5796 5796 5796 5796 5796 5797 5798 5799 5799 5800 5801 5802 5803 5804 5805 5807 5808 5810 5811 5812 5813 5814 5816 5817 5818 5819 5820 5821 5822 5823 5823 5822 5822 5822 5823 5823 5822 5822 5822 5822 5821 5821 5821 5819 5818 5816 5815 5813 5813 5812 5811 5812 5811 5809 5807 5806 5805 5805 5805 5805 5804 5803 5802 5802 5801 5800 5800 5799 5799
5805 5804 5803 5803 5802 5801 5801 5800 5800 5799 5799 5798 5798 5797 5797 5796 5796 5795 5795 5795 5795 5795 5795 5796 5796 5797 5798 5799 5800 5801 5802 5803 5805 5806 5808 5809 5810 5812 5812 5814 5815 5817 5818 5819 5820 5821 5822 5823 5823 5822 5822 5822 5822 5823 5823 5823 5823 5823 5822 5822 5822 5822 5821 5819 5817 5816 5814 5814 5814 5813 5813 5812 5810 5809 5808 5807 5806 5805 5805 5805 5804 5803 5802 5802 5801 5801 5800 5800
5804 5804 5803 5802 5802 5801 5801 5800 5799 5799 5798 5798 5797 5797 5796 5795 5795 5795 5795 5794 5794 5794 5794 5795 5795 5796 5798 5799 5800 5801 5802 5803 5805 5807 5809 5810 5811 5812 5813 5815 5816 5818 5819 5820 5821 5821 5822 5823 5822 5823 5823 5822 5823 5824 5824 5825 5825 5824 5823 5823 5823 5823 5822 5820 5819 5817 5816 5816 5815 5814 5814 5813 5812 5811 5810 5808 5807 5806 5805 5805 5805 5804 5803 5803 5802 5802 5801 5801
5804 5803 5803 5802 5801 5801 5800 5800 5799 5798 5798 5798 5797 5796 5795 5794 5794 5794 5794 5794 5793 5793 5793 5794 5795 5796 5797 5799 5800 5801 5802 5804 5806 5808 5810 5811 5812 5813 5814 5816 5818 5819 5820 5821 5822 5822 5823 5823 5823 5824 5824 5823 5824 5825 5826 5827 5826 5825 5824 5824 5824 5824 5823 5821 5820 5818 5817 5817 5816 5816 5816 5814 5813 5813 5811 5810 5809 5808 5807 5806 5806 5805 5804 5804 5803 5803 5802 5802
5804 5803 5802 5802 5801 5801 5800 5799 5799 5798 5798 5797 5796 5795 5794 5794 5794 5794 5793 5793 5793 5792 5792 5793 5794 5795 5797 5799 5800 5801 5803 5805 5806 5808 5810 5811 5812 5814 5816 5818 5819 5820 5821 5822 5822 5823 5824 5824 5824 5825 5825 5825 5826 5827 5827 5827 5827 5826 5826 5826 5825 5825 5824 5822 5821 5820 5819 5818 5817 5818 5818 5816 5815 5814 5813 5812 5811 5810 5809 5807 5806 5806 5805 5804 5804 5803 5803 5803
5804 5803 5802 5802 5801 5800 5800 5799 5798 5797 5797 5796 5795 5795 5794 5794 5794 5794 5793 5793 5792 5792 5792 5792 5793 5795 5796 5798 5800 5801 5803 5805 5807 5808 5810 5811 5814 5816 5817 5819 5820 5821 5822 5823 5823 5824 5825 5824 5824 5825 5826 5827 5827 5828 5829 5828 5828 5828 5827 5827 5826 5826 5825 5824 5822 5821 5820 5819 5819 5819 5819 5817 5816 5816 5815 5814 5812 5811 5810 5808 5807 5807 5806 5806 5805 5804 5804 5804
5803 5803 5802 5801 5801 5800 5799 5799 5798 5797 5796 5795 5795 5795 5795 5794 5794 5794 5794 5793 5793 5792 5792 5792 5793 5795 5796 5797 5799 5801 5803 5804 5806 5809 5810 5812 5815 5817 5819 5820 5821 5822 5823 5824 5824 5825 5826 5825 5825 5826 5827 5828 5828 5829 5830 5830 5830 5829 5828 5828 5828 5827 5827 5825 5823 5822 5821 5821 5821 5820 5820 5819 5818 5817 5816 5815 5814 5813 5811 5810 5809 5808 5808 5807 5806 5806 5805 5805
5803 5802 5802 5801 5801 5800 5799 5798 5797 5796 5795 5795 5795 5795 5795 5795 5795 5795 5794 5794 5793 5792 5792 5793 5794 5795 5796 5797 5798 5800 5803 5805 5807 5809 5812 5814 5816 5818 5820 5821 5822 5823 5824 5825 5825 5826 5827 5826 5826 5827 5828 5829 5830 5830 5832 5832 5831 5831 5830 5829 5829 5829 5828 5826 5824 5823 5822 5822 5822 5822 5821 5820 5819 5818 5817 5816 5816 5814 5813 5812 5811 5810 5809 5808 5807 5807 5807 5806
5803 5802 5802 5801 5800 5800 5799 5797 5796 5796 5795 5795 5795 5795 5796 5796 5795 5795 5795 5794 5794 5794 5793 5794 5795 5795 5796 5797 5799 5801 5803 5806 5808 5811 5813 5815 5818 5819 5821 5822 5823 5824 5825 5826 5825 5826 5827 5827 5828 5829 5829 5830 5831 5831 5832 5833 5833 5832 5831 5830 5830 5830 5829 5827 5826 5825 5824 5824 5824 5823 5823 5821 5820 5819 5818 5818 5817 5816 5815 5813 5812 5811 5811 5810 5809 5808 5808 5808
5803 5802 5801 5801 5800 5799 5798 5797 5796 5796 5796 5796 5796 5796 5796 5796 5796 5795 5795 5795 5795 5795 5795 5795 5796 5797 5798 5799 5801 5802 5805 5807 5810 5812 5814 5817 5819 5820 5822 5823 5824 5825 5826 5826 5826 5827 5828 5829 5829 5830 5831 5831 5832 5832 5833 5834 5834 5833 5832 5832 5831 5830 5830 5828 5828 5826 5825 5826 5826 5825 5824 5823 5822 5821 5820 5819 5818 5818 5817 5815 5814 5813 5812 5812 5811 5810 5810 5809
5803 5802 5801 5800 5800 5799 5798 5797 5797 5796 5796 5796 5796 5796 5796 5796 5796 5796 5796 5796 5796 5796 5797 5797 5798 5799 5800 5801 5803 5805 5807 5809 5812 5814 5816 5818 5820 5821 5823 5825 5826 5827 5827 5827 5828 5829 5829 5830 5830 5831 5831 5832 5833 5833 5834 5834 5835 5834 5834 5833 5832 5831 5831 5830 5829 5828 5827 5827 5828 5826 5826 5825 5824 5823 5822 5821 5821 5820 5819 5818 5817 5816 5815 5814 5813 5812 5811 5811
5802 5802 5801 5800 5799 5799 5798 5797 5797 5797 5796 5797 5797 5796 5796 5797 5797 5797 5797 5797 5797 5797 5798 5799 5799 5800 5802 5804 5806 5808 5810 5812 5815 5817 5818 5820 5821 5823 5825 5826 5827 5828 5828 5829 5829 5830 5830 5831 5831 5832 5832 5833 5834 5835 5835 5835 5835 5835 5835 5834 5834 5833 5832 5832 5831 5830 5829 5829 5829 5828 5829 5828 5826 5826 5825 5824 5823 5822 5821 5820 5819 5818 5817 5816 5815 5814 5813 5813
5802 5801 5801 5800 5799 5798 5798 5798 5797 5797 5797 5797 5797 5797 5797 5797 5797 5798 5798 5798 5798 5799 5799 5800 5801 5802 5804 5806 5808 5811 5813 5814 5816 5818 5819 5821 5822 5824 5826 5827 5828 5829 5829 5830 5830 5830 5831 5832 5832 5833 5833 5834 5835 5836 5836 5836 5836 5836 5836 5836 5836 5835 5834 5833 5833 5832 5830 5830 5830 5830 5831 5830 5829 5828 5827 5826 5825 5824 5822 5821 5821 5820 5819 5818 5817 5816 5816 5815
5801 5801 5800 5800 5799 5799 5798 5798 5797 5797 5797 5797 5797 5797 5797 5798 5798 5798 5799 5799 5799 5800 5800 5801 5803 5804 5806 5808 5810 5813 5815 5816 5818 5819 5820 5822 5824 5825 5827 5827 5828 5829 5830 5830 5830 5831 5831 5832 5833 5834 5835 5835 5836 5837 5837 5837 5837 5837 5837 5837 5838 5837 5836 5835 5834 5833 5832 5832 5832 5832 5832 5832 5831 5831 5830 5828 5827 5825 5824 5823 5822 5821 5820 5819 5818 5818 5818 5817
5801 5801 5800 5799 5799 5798 5798 5798 5798 5798 5797 5797 5797 5798 5798 5798 5798 5799 5799 5800 5800 5801 5802 5803 5805 5807 5808 5810 5812 5814 5816 5818 5819 5821 5823 5824 5825 5826 5827 5828 5829 5830 5830 5831 5832 5832 5833 5834 5835 5835 5836 5836 5837 5837 5838 5838 5838 5838 5839 5839 5839 5838 5837 5837 5836 5835 5834 5834 5834 5833 5833 5833 5832 5832 5831 5830 5829 5827 5826 5824 5823 5823 5822 5821 5821 5820 5819 5819
5800 5800 5800 5799 5799 5798 5798 5798 5798 5798 5798 5798 5798 5798 5798 5799 5799 5800 5800 5801 5802 5803 5804 5805 5807 5809 5811 5812 5814 5816 5818 5819 5821 5824 5825 5826 5826 5827 5828 5828 5829 5830 5831 5832 5833 5833 5834 5835 5835 5836 5836 5837 5837 5838 5838 5839 5839 5839 5840 5840 5840 5839 5839 5838 5837 5836 5836 5836 5836 5835 5834 5834 5833 5833 5832 5831 5830 5829 5828 5826 5825 5824 5823 5823 5822 5822 5821 5820
5800 5799 5799 5799 5798 5798 5798 5798 5798 5798 5798 5798 5798 5798 5798 5799 5799 5800 5801 5802 5803 5804 5805 5807 5809 5810 5812 5813 5816 5817 5819 5821 5823 5824 5825 5826 5827 5828 5828 5829 5830 5831 5832 5833 5834 5834 5835 5836 5836 5836 5836 5837 5837 5838 5839 5839 5839 5840 5840 5841 5841 5840 5840 5840 5839 5838 5838 5838 5837 5837 5836 5835 5835 5834 5833 5832 5831 5830 5829 5828 5827 5826 5824 5824 5823 5823 5822 5822
5799 5799 5799 5798 5798 5798 5798 5797 5798 5798 5798 5798 5798 5798 5799 5799 5800 5801 5802 5803 5804 5805 5807 5808 5810 5812 5813 5815 5817 5819 5820 5822 5823 5825 5826 5827 5828 5829 5829 5830 5830 5832 5833 5834 5835 5835 5835 5836 5836 5836 5837 5837 5838 5839 5839 5840 5840 5840 5841 5841 5841 5841 5840 5840 5840 5839 5839 5839 5838 5838 5838 5837 5837 5836 5835 5834 5833 5831 5830 5829 5828 5827 5826 5825 5824 5824 5823 5823
5798 5798 5798 5798 5798 5797 5797 5797 5797 5798 5798 5798 5799 5799 5799 5800 5801 5802 5803 5804 5805 5806 5807 5809 5811 5813 5814 5816 5818 5820 5821 5822 5823 5825 5826 5827 5828 5829 5830 5830 5831 5832 5833 5834 5835 5836 5836 5836 5836 5836 5837 5837 5838 5839 5840 5840 5840 5840 5841 5842 5842 5841 5841 5841 5841 5840 5840 5840 5840 5839 5839 5838 5838 5837 5836 5836 5834 5833 5832 5831 5830 5829 5828 5826 5825 5824 5824 5824
5798 5798 5798 5797 5797 5797 5797 5797 5797 5798 5798 5798 5799 5799 5800 5801 5802 5803 5804 5805 5806 5807 5808 5810 5811 5813 5815 5817 5819 5821 5822 5822 5824 5825 5826 5827 5828 5829 5830 5830 5831 5832 5833 5834 5835 5836 5837 5837 5837 5836 5836 5837 5838 5840 5840 5841 5841 5841 5841 5842 5842 5842 5842 5843 5842 5841 5841 5841 5841 5840 5840 5839 5839 5838 5837 5837 5835 5834 5833 5832 5831 5830 5829 5828 5826 5826 5825 5825
5797 5797 5797 5797 5797 5796 5797 5797 5797 5797 5798 5798 5799 5799 5800 5801 5802 5804 5805 5806 5807 5809 5810 5811 5812 5814 5816 5818 5820 5821 5822 5823 5825 5826 5826 5827 5828 5829 5830 5831 5832 5832 5833 5834 5835 5836 5837 5837 5837 5837 5837 5838 5838 5840 5841 5841 5841 5841 5841 5842 5843 5843 5843 5844 5843 5842 5842 5842 5841 5841 5841 5840 5839 5838 5838 5837 5836 5835 5833 5832 5832 5831 5830 5829 5828 5827 5826 5826
5796 5796 5796 5796 5796 5796 5796 5796 5797 5797 5798 5798 5799 5800 5800 5801 5803 5804 5805 5807 5808 5809 5811 5812 5813 5815 5817 5819 5820 5821 5823 5824 5825 5826 5827 5828 5828 5829 5831 5832 5832 5832 5833 5834 5835 5836 5836 5837 5838 5837 5837 5838 5839 5840 5841 5841 5841 5841 5842 5843 5843 5843 5843 5843 5842 5842 5843 5843 5842 5841 5841 5841 5840 5839 5838 5838 5837 5836 5834 5833 5833 5833 5831 5830 5829 5828 5827 5827
5795 5795 5795 5795 5795 5795 5795 5796 5796 5797 5797 5798 5799 5800 5800 5801 5803 5804 5806 5807 5809 5810 5811 5813 5814 5816 5818 5819 5820 5822 5823 5824 5825 5826 5827 5828 5828 5829 5831 5831 5832 5832 5833 5834 5835 5836 5836 5837 5838 5838 5837 5838 5838 5839 5840 5841 5842 5842 5843 5843 5844 5843 5843 5842 5842 5842 5843 5843 5842 5842 5842 5842 5840 5839 5839 5838 5837 5836 5835 5834 5834 5834 5832 5830 5829 5829 5828 5828
5794 5794 5794 5795 5795 5795 5795 5795 5796 5796 5797 5798 5799 5800 5801 5802 5803 5804 5806 5808 5809 5810 5812 5813 5815 5816 5818 5819 5820 5822 5823 5824 5825 5826 5827 5827 5828 5829 5830 5831 5832 5832 5833 5834 5835 5836 5836 5837 5838 5838 5838 5837 5838 5839 5840 5841 5842 5842 5843 5843 5843 5843 5843 5842 5842 5843 5843 5843 5843 5842 5842 5842 5841 5839 5839 5838 5837 5836 5836 5835 5835 5834 5833 5830 5829 5829 5828 5828
5793 5793 5794 5794 5794 5794 5795 5795 5796 5796 5797 5798 5799 5800 5801 5802 5803 5805 5807 5808 5810 5811 5812 5814 5815 5816 5818 5819 5821 5822 5823 5824 5826 5826 5827 5827 5828 5829 5830 5831 5832 5832 5833 5834 5835 5835 5836 5837 5837 5837 5838 5838 5838 5839 5840 5841 5841 5842 5842 5842 5843 5843 5843 5842 5842 5842 5843 5843 5843 5843 5842 5842 5841 5840 5840 5839 5838 5837 5836 5835 5835 5835 5833 5831 5830 5830 5829 5829
5792 5792 5793 5793 5793 5794 5794 5795 5795 5796 5797 5798 5799 5800 5801 5802 5804 5805 5807 5809 5810 5811 5813 5814 5815 5817 5818 5819 5821 5822 5823 5824 5825 5826 5826 5827 5828 5829 5830 5831 5832 5832 5833 5834 5835 5835 5836 5836 5837 5837 5838 5839 5839 5840 5840 5841 5841 5842 5842 5842 5842 5843 5843 5842 5842 5843 5843 5843 5843 5842 5842 5842 5841 5840 5840 5840 5838 5838 5837 5836 5836 5836 5834 5832 5831 5830 5829 5829
5791 5791 5792 5792 5792 5793 5794 5795 5795 5796 5796 5797 5798 5800 5801 5802 5804 5805 5807 5809 5810 5811 5813 5815 5816 5817 5818 5819 5821 5822 5823 5824 5825 5825 5826 5827 5828 5829 5831 5831 5832 5832 5833 5834 5835 5835 5836 5836 5836 5837 5839 5839 5839 5840 5840 5841 5841 5842 5842 5842 5842 5842 5843 5843 5843 5843 5843 5843 5843 5842 5842 5842 5841 5841 5841 5840 5839 5838 5838 5837 5836 5836 5834 5832 5831 5830 5830 5829
5789 5790 5790 5791 5791 5792 5793 5794 5795 5796 5796 5797 5798 5799 5800 5802 5803 5805 5806 5808 5810 5811 5813 5814 5816 5817 5818 5819 5820 5821 5823 5824 5824 5825 5826 5827 5828 5830 5831 5831 5832 5832 5833 5834 5834 5835 5836 5836 5837 5837 5839 5839 5840 5840 5841 5841 5841 5841 5841 5842 5842 5842 5843 5843 5842 5843 5843 5843 5843 5842 5842 5841 5841 5841 5840 5840 5839 5839 5838 5837 5837 5836 5834 5832 5831 5830 5829 5829
5788 5789 5789 5790 5790 5791 5792 5793 5794 5795 5796 5797 5798 5799 5800 5801 5802 5804 5805 5807 5809 5811 5813 5814 5815 5816 5817 5818 5820 5821 5822 5824 5824 5825 5826 5827 5829 5830 5830 5831 5831 5832 5833 5834 5834 5835 5836 5836 5837 5838 5839 5839 5840 5841 5841 5841 5841 5842 5842 5842 5842 5842 5842 5842 5842 5843 5843 5843 5843 5842 5842 5841 5840 5840 5840 5840 5840 5839 5838 5837 5836 5835 5833 5832 5831 5830 5829 5828
5787 5788 5788 5788 5789 5789 5790 5792 5793 5794 5795 5796 5797 5798 5799 5800 5802 5803 5805 5806 5808 5810 5812 5813 5815 5816 5817 5818 5819 5820 5822 5823 5824 5825 5826 5827 5828 5830 5830 5831 5831 5832 5832 5833 5834 5835 5835 5836 5837 5838 5839 5839 5840 5841 5841 5841 5841 5842 5842 5842 5842 5842 5842 5842 5843 5843 5843 5843 5842 5842 5841 5841 5840 5840 5840 5840 5839 5838 5837 5836 5835 5834 5833 5832 5831 5830 5829 5828
5786 5786 5787 5787 5787 5788 5789 5790 5792 5793 5794 5795 5796 5797 5798 5799 5801 5802 5804 5806 5808 5810 5811 5813 5814 5815 5816 5817 5818 5820 5821 5822 5823 5824 5825 5827 5828 5829 5830 5830 5831 5831 5832 5832 5833 5834 5835 5836 5837 5837 5838 5839 5840 5840 5841 5841 5841 5841 5841 5842 5842 5842 5842 5842 5842 5843 5842 5842 5842 5841 5841 5840 5840 5840 5840 5839 5839 5838 5837 5835 5834 5833 5832 5832 5831 5830 5828 5828
5784 5785 5785 5786 5786 5787 5788 5789 5790 5792 5793 5794 5795 5796 5797 5798 5800 5801 5803 5805 5807 5809 5811 5812 5813 5814 5815 5816 5818 5819 5820 5821 5822 5824 5825 5826 5827 5828 5829 5830 5830 5831 5831 5832 5833 5834 5834 5835 5836 5837 5837 5839 5840 5840 5840 5840 5840 5840 5840 5840 5841 5841 5842 5842 5842 5842 5841 5841 5841 5840 5840 5840 5839 5839 5839 5838 5838 5837 5837 5835 5833 5832 5832 5831 5830 5829 5828 5828
5783 5783 5784 5785 5785 5786 5787 5788 5789 5790 5791 5793 5794 5795 5797 5798 5799 5801 5802 5804 5806 5808 5809 5811 5812 5813 5815 5816 5817 5818 5819 5821 5822 5823 5824 5825 5826 5827 5828 5829 5830 5830 5831 5831 5832 5833 5834 5835 5836 5836 5837 5838 5839 5840 5840 5840 5840 5840 5840 5839 5840 5840 5841 5841 5841 5840 5840 5840 5840 5840 5839 5839 5839 5838 5838 5837 5837 5837 5836 5834 5832 5831 5831 5830 5829 5828 5828 5827
5781 5782 5783 5783 5784 5784 5786 5787 5788 5790 5791 5792 5793 5795 5796 5797 5798 5800 5801 5803 5805 5806 5808 5810 5811 5812 5814 5815 5816 5817 5819 5820 5822 5823 5824 5825 5826 5827 5827 5828 5829 5830 5830 5831 5832 5833 5834 5835 5835 5836 5837 5838 5839 5840 5840 5840 5840 5839 5839 5839 5839 5839 5839 5840 5840 5839 5839 5840 5839 5839 5838 5838 5838 5838 5837 5836 5836 5836 5834 5833 5831 5830 5830 5829 5828 5827 5826 5826
5779 5780 5781 5782 5782 5783 5784 5786 5787 5789 5790 5791 5792 5794 5795 5796 5797 5798 5800 5802 5803 5805 5807 5808 5810 5811 5812 5814 5815 5816 5818 5820 5822 5823 5824 5825 5825 5826 5827 5828 5828 5829 5830 5831 5831 5832 5833 5834 5835 5836 5837 5838 5838 5839 5839 5839 5839 5839 5839 5839 5838 5838 5838 5838 5838 5838 5839 5839 5839 5838 5838 5838 5837 5837 5836 5836 5835 5835 5833 5832 5830 5829 5829 5828 5827 5826 5825 5824
5777 5778 5779 5780 5781 5782 5783 5784 5786 5787 5789 5790 5791 5792 5794 5794 5795 5796 5798 5800 5802 5804 5805 5807 5808 5810 5811 5813 5814 5816 5817 5819 5821 5822 5823 5824 5825 5825 5826 5827 5828 5828 5829 5830 5831 5832 5833 5834 5835 5836 5836 5837 5837 5837 5838 5838 5838 5838 5838 5838 5838 5837 5837 5837 5837 5838 5838 5838 5838 5838 5837 5837 5836 5836 5835 5835 5835 5834 5832 5831 5830 5829 5829 5828 5827 5826 5825 5824
5775 5776 5777 5778 5779 5780 5781 5782 5784 5785 5786 5788 5789 5791 5792 5793 5794 5795 5796 5798 5800 5802 5804 5805 5807 5808 5810 5812 5813 5815 5817 5818 5820 5821 5823 5824 5824 5825 5825 5826 5827 5827 5828 5829 5830 5831 5832 5833 5835 5835 5836 5836 5836 5837 5837 5837 5837 5837 5837 5837 5837 5837 5837 5836 5836 5837 5837 5837 5837 5837 5836 5836 5835 5835 5835 5834 5834 5833 5832 5830 5830 5830 5829 5829 5827 5826 5825 5824
5772 5774 5775 5776 5777 5779 5780 5781 5782 5783 5784 5786 5787 5789 5790 5792 5793 5793 5794 5796 5798 5800 5802 5804 5805 5807 5809 5811 5812 5813 5815 5817 5819 5821 5822 5823 5824 5824 5825 5825 5826 5826 5827 5828 5829 5830 5831 5833 5834 5834 5835 5835 5835 5835 5836 5836 5836 5836 5836 5836 5836 5836 5836 5836 5836 5836 5836 5836 5836 5836 5835 5835 5834 5834 5833 5833 5832 5832 5831 5830 5830 5830 5830 5829 5828 5827 5826 5825
5770 5771 5773 5774 5775 5777 5778 5779 5780 5781 5782 5784 5786 5787 5789 5790 5791 5792 5792 5793 5795 5798 5800 5802 5804 5806 5808 5810 5811 5812 5814 5816 5818 5820 5822 5823 5824 5824 5824 5824 5825 5825 5826 5827 5828 5830 5831 5832 5833 5834 5834 5834 5834 5835 5835 5835 5835 5835 5835 5835 5834 5834 5835 5835 5835 5835 5835 5835 5835 5834 5834 5834 5833 5832 5832 5832 5831 5831 5831 5831 5831 5830 5830 5829 5827 5826 5826 5825
5767 5769 5771 5772 5773 5774 5776 5777 5778 5780 5781 5782 5783 5785 5787 5788 5790 5790 5791 5791 5793 5795 5797 5800 5803 5805 5807 5808 5810 5811 5813 5815 5817 5819 5821 5822 5822 5822 5822 5823 5824 5824 5825 5826 5827 5829 5830 5830 5832 5832 5833 5833 5833 5834 5834 5834 5834 5834 5834 5834 5833 5833 5833 5834 5834 5834 5834 5834 5834 5833 5833 5832 5831 5831 5831 5831 5831 5831 5831 5831 5830 5830 5829 5828 5827 5826 5826 5826
5765 5766 5768 5770 5771 5772 5774 5775 5777 5778 5779 5780 5781 5783 5785 5786 5788 5789 5789 5789 5790 5792 5795 5798 5801 5803 5805 5807 5809 5810 5812 5814 5816 5818 5819 5820 5821 5821 5821 5822 5822 5823 5824 5825 5826 5828 5829 5829 5830 5831 5831 5832 5832 5832 5833 5833 5833 5832 5832 5832 5832 5832 5832 5832 5832 5833 5833 5832 5832 5832 5831 5831 5831 5830 5830 5830 5830 5830 5830 5830 5829 5829 5828 5827 5827 5826 5826 5825
5762 5764 5766 5767 5769 5770 5772 5773 5775 5776 5777 5778 5779 5781 5783 5785 5786 5787 5788 5788 5789 5791 5794 5797 5800 5801 5804 5806 5807 5809 5811 5813 5815 5816 5818 5819 5820 5820 5821 5821 5821 5822 5823 5824 5825 5826 5827 5828 5829 5830 5830 5830 5831 5831 5831 5831 5831 5831 5831 5831 5832 5831 5831 5831 5831 5831 5831 5831 5831 5831 5830 5830 5830 5830 5830 5829 5829 5829 5828 5828 5827 5827 5827 5826 5826 5825 5824 5823